DW9989 Weather Reports


time (UTC)temp
F
wind
direction
speed
knots
gust
knots
rain 1hr
in
rain 24hr
in
rain mn
in
humidity
%
barometer
mb
20260505053516 70 87 2.6 6.1 0.00 0.00 0.00 84 1015.5
20260505052516 70 79 2.6 6.1 0.00 0.00 0.00 84 1015.6
20260505051517 70 75 2.6 6.1 0.00 0.00 0.00 83 1015.6
20260505050536 70 91 2.6 5.2 0.00 0.00 0.00 82 1015.6
20260505041536 71 66 3.5 6.1 0.00 0.00 0.00 81 1015.9
20260505040616 71 69 3.5 7.0 0.00 0.00 0.00 81 1015.8
20260505035516 71 67 2.6 4.3 0.00 0.00 0.00 81 1015.9
20260505034658 71 74 3.5 7.0 0.00 0.00 0.00 80 1015.9
20260505033516 71 75 2.6 5.2 0.00 0.00 0.00 80 1015.9
20260505032516 72 78 3.5 7.0 0.00 0.00 0.00 78 1015.8
20260505031517 72 93 3.5 9.6 0.00 0.00 0.00 78 1015.9
20260505030536 72 101 3.5 7.0 0.00 0.00 0.00 77 1016.2
20260505025516 72 93 4.3 8.7 0.00 0.00 0.00 77 1016.3
20260505024516 73 91 4.3 8.7 0.00 0.00 0.00 76 1016.0
20260505023516 73 101 6.1 10.4 0.00 0.00 0.00 76 1015.7
20260505022536 73 97 5.2 11.3 0.00 0.00 0.00 75 1015.7
20260505021516 73 96 4.3 8.7 0.00 0.00 0.00 75 1015.6
20260505020516 74 101 5.2 9.6 0.00 0.00 0.00 74 1015.5
20260505015536 74 101 5.2 9.6 0.00 0.00 0.00 73 1015.5
20260505014516 74 99 6.1 9.6 0.00 0.00 0.00 73 1015.4
20260505013516 74 103 5.2 9.6 0.00 0.00 0.00 73 1015.3
20260505012536 75 107 7.0 11.3 0.00 0.00 0.00 72 1015.2
20260505011516 75 104 6.1 9.6 0.00 0.00 0.00 71 1015.1
20260505010516 75 103 7.0 12.2 0.00 0.00 0.00 71 1014.8
20260505005536 76 99 6.1 9.6 0.00 0.00 0.00 70 1014.8
20260505004516 76 107 7.0 11.3 0.00 0.00 0.00 70 1014.4
20260505003516 76 100 6.1 12.2 0.00 0.00 0.00 69 1014.4
20260505002516 77 99 7.0 11.3 0.00 0.00 0.00 68 1014.5
20260505001516 77 85 6.1 13.0 0.00 0.00 0.00 68 1014.4
20260505000536 78 96 7.0 11.3 0.00 0.00 0.00 66 1013.9
20260504235536 79 93 6.1 13.0 0.00 0.00 0.00 65 1013.7
20260504234516 79 99 4.3 7.8 0.00 0.00 0.00 64 1013.6
20260504233516 80 93 6.1 13.9 0.00 0.00 0.00 63 1013.7
20260504232556 81 97 6.1 13.9 0.00 0.00 0.00 62 1013.6
20260504231536 81 85 6.1 11.3 0.00 0.00 0.00 61 1013.6
20260504230637 82 105 6.1 13.9 0.00 0.00 0.00 60 1013.5
20260504225516 82 57 7.0 13.0 0.00 0.00 0.00 63 1013.4
20260504224516 82 94 6.1 10.4 0.00 0.00 0.00 58 1013.3
20260504223516 83 82 4.3 8.7 0.00 0.00 0.00 58 1013.4
20260504222516 82 91 6.1 10.4 0.00 0.00 0.00 58 1013.5
20260504221556 83 103 5.2 10.4 0.00 0.00 0.00 56 1013.4
20260504220556 83 88 4.3 7.8 0.00 0.00 0.00 57 1013.4
20260504215656 84 89 6.1 10.4 0.00 0.00 0.00 54 1013.4
20260504214516 84 94 5.2 12.2 0.00 0.00 0.00 54 1013.4
20260504213556 84 66 7.0 10.4 0.00 0.00 0.00 54 1013.4
20260504212516 83 70 5.2 8.7 0.00 0.00 0.00 57 1013.3
20260504211516 84 48 7.8 12.2 0.00 0.00 0.00 55 1013.4
20260504210536 86 107 3.5 7.0 0.00 0.00 0.00 49 1013.4
20260504205636 85 131 3.5 8.7 0.00 0.00 0.00 50 1013.4
20260504204536 85 115 7.0 12.2 0.00 0.00 0.00 50 1013.5
20260504203516 83 62 2.6 5.2 0.00 0.00 0.00 50 1013.4
20260504202516 84 73 5.2 7.8 0.00 0.00 0.00 52 1013.6
20260504201516 85 93 7.8 13.9 0.00 0.00 0.00 49 1013.7
20260504200516 85 29 6.1 10.4 0.00 0.00 0.00 53 1013.8
20260504195515 86 105 4.3 7.8 0.00 0.00 0.00 47 1013.9
20260504194536 86 139 7.0 13.9 0.00 0.00 0.00 47 1013.9
20260504193636 86 88 3.5 7.8 0.00 0.00 0.00 47 1014.2
20260504192516 85 120 6.1 9.6 0.00 0.00 0.00 48 1014.1
20260504191536 84 47 6.1 13.0 0.00 0.00 0.00 52 1014.2
20260504190515 85 92 7.0 11.3 0.00 0.00 0.00 48 1014.6
20260504185556 83 76 4.3 8.7 0.00 0.00 0.00 50 1014.5
20260504184556 83 78 7.0 11.3 0.00 0.00 0.00 49 1014.8
20260504183616 85 69 6.1 12.2 0.00 0.00 0.00 47 1015.2
20260504182516 84 91 4.3 9.6 0.00 0.00 0.00 53 1015.5
20260504181535 83 102 6.1 11.3 0.00 0.00 0.00 51 1015.8
20260504180515 83 52 6.1 13.9 0.00 0.00 0.00 52 1015.7
20260504175515 83 135 3.5 7.0 0.00 0.00 0.00 51 1015.7
20260504174515 82 56 6.1 10.4 0.00 0.00 0.00 53 1015.8
20260504173535 82 82 4.3 9.6 0.00 0.00 0.00 52 1016.2
20260504172535 82 77 3.5 11.3 0.00 0.00 0.00 54 1016.0
20260504171515 81 60 8.7 13.9 0.00 0.00 0.00 56 1016.3
20260504170555 81 55 5.2 9.6 0.00 0.00 0.00 55 1016.1
20260504150517 78 62 8.7 12.2 0.00 0.00 0.00 61 1017.2
20260504140537 75 65 9.6 13.9 0.00 0.00 0.00 72 1017.0
20260504130537 72 52 8.7 13.0 0.00 0.00 0.00 74 1016.8
20260504110537 66 33 7.8 10.4 0.00 0.00 0.00 85 1015.9
20260504100536 67 27 7.8 10.4 0.00 0.00 0.00 86 1015.7
20260504081516 68 28 7.0 9.6 0.00 0.01 0.00 84 1015.4
20260504080516 68 28 7.0 10.4 0.00 0.01 0.00 85 1015.5